TimeCDT,TemperatureF,Dew PointF,Humidity,Sea Level PressureIn,VisibilityMPH,Wind Direction,Wind SpeedMPH,Gust SpeedMPH,PrecipitationIn,Events,Conditions,WindDirDegrees,DateUTC
12:53 AM,70.0,69.1,97,30.06,10.0,Calm,Calm,-,N/A,,Clear,0,2013-09-12 05:53:00
1:53 AM,69.1,68.0,96,30.07,8.0,Calm,Calm,-,N/A,,Clear,0,2013-09-12 06:53:00
2:53 AM,69.1,68.0,96,30.06,5.0,Calm,Calm,-,N/A,,Clear,0,2013-09-12 07:53:00
3:53 AM,68.0,66.9,96,30.07,4.0,Calm,Calm,-,N/A,,Clear,0,2013-09-12 08:53:00
4:53 AM,68.0,66.0,93,30.07,4.0,Calm,Calm,-,N/A,,Clear,0,2013-09-12 09:53:00
5:53 AM,66.9,66.0,97,30.08,5.0,Calm,Calm,-,N/A,,Clear,0,2013-09-12 10:53:00
6:42 AM,66.2,64.4,94,30.07,2.5,Calm,Calm,-,N/A,,Clear,0,2013-09-12 11:42:00
6:53 AM,66.9,66.0,97,30.08,1.8,Calm,Calm,-,N/A,,Clear,0,2013-09-12 11:53:00
7:19 AM,69.8,66.2,88,30.07,2.5,Calm,Calm,-,N/A,,Clear,0,2013-09-12 12:19:00
7:32 AM,69.8,69.8,100,30.07,4.0,Calm,Calm,-,N/A,,Clear,0,2013-09-12 12:32:00
7:53 AM,73.9,71.1,91,30.09,7.0,Calm,Calm,-,N/A,,Clear,0,2013-09-12 12:53:00
8:53 AM,80.1,73.0,79,30.09,10.0,Calm,Calm,-,N/A,,Clear,0,2013-09-12 13:53:00
9:53 AM,84.0,73.0,69,30.09,10.0,West,3.5,-,N/A,,Clear,260,2013-09-12 14:53:00
10:53 AM,89.1,72.0,57,30.09,10.0,Calm,Calm,-,N/A,,Clear,0,2013-09-12 15:53:00
11:53 AM,90.0,69.1,50,30.07,10.0,Calm,Calm,-,N/A,,Scattered Clouds,0,2013-09-12 16:53:00
12:53 PM,93.0,69.1,45,30.05,10.0,Variable,5.8,-,N/A,,Partly Cloudy,0,2013-09-12 17:53:00
1:53 PM,95.0,69.1,43,30.03,10.0,Variable,5.8,-,N/A,,Clear,0,2013-09-12 18:53:00
2:53 PM,93.9,66.9,41,29.99,10.0,Variable,3.5,-,N/A,,Clear,0,2013-09-12 19:53:00
3:53 PM,95.0,66.0,38,29.96,10.0,Variable,4.6,-,N/A,,Partly Cloudy,0,2013-09-12 20:53:00
4:53 PM,93.9,66.0,40,29.94,10.0,Variable,5.8,-,N/A,,Clear,0,2013-09-12 21:53:00
5:53 PM,93.0,68.0,44,29.94,10.0,ENE,4.6,-,N/A,,Clear,60,2013-09-12 22:53:00
6:53 PM,82.0,73.0,74,29.94,10.0,Calm,Calm,-,N/A,,Clear,0,2013-09-12 23:53:00
7:53 PM,75.9,72.0,87,29.95,10.0,Calm,Calm,-,N/A,,Clear,0,2013-09-13 00:53:00
8:53 PM,75.0,72.0,90,29.96,10.0,Calm,Calm,-,N/A,,Clear,0,2013-09-13 01:53:00
9:53 PM,73.9,72.0,93,29.96,9.0,Calm,Calm,-,N/A,,Partly Cloudy,0,2013-09-13 02:53:00
10:53 PM,72.0,70.0,93,29.96,6.0,Calm,Calm,-,N/A,,Clear,0,2013-09-13 03:53:00
11:53 PM,73.0,71.1,93,29.95,6.0,Calm,Calm,-,N/A,,Partly Cloudy,0,2013-09-13 04:53:00